{"data":{"norad_id":68796,"intl_designator":"2026-088E","name":"ARICA-2","alt_names":[],"object_type":"PAYLOAD","status":"ACTIVE","operator":null,"country":"JPN","launch_date":"2026-04-23","launch_site_code":"RLLB","launch_vehicle":null,"mission":null,"orbit_class":"UNKNOWN","rcs_meters":null,"size_class":null,"mass_kg":null,"dimensions":null,"purposes":[],"wikipedia_slug":null,"has_3d_model":false,"image_url":null,"decayed_at":null,"tle_current":{"epoch":"2026-05-25T03:23:21.774336Z","epoch_age_seconds":56748,"freshness":"FRESH","line1":"1 68796U 26088E   26145.14122424  .00004186  00000+0  27379-3 0  9997","line2":"2 68796  97.5038 295.0600 0016639 152.7668 207.4437 15.08201458  4827","mean_motion":15.08201458,"eccentricity":0.0016639,"inclination_deg":97.5038,"raan_deg":295.06,"arg_perigee_deg":152.7668,"mean_anomaly_deg":207.4437,"bstar":0.00027379,"rev_number":482,"period_min":95.477961008575,"perigee_km":530.18193511802,"apogee_km":553.20975485957,"semimajor_km":6919.8328449888,"source":"CELESTRAK","updated_at":"2026-05-25T13:38:08.088346Z"}}}